Date String (YYYY-MM-DD hh:mm:ss) UTC,Instrument flags,Ambient pressure (hPa),Sample flow (lpm),Bypass flow (lpm),Sample temperature (°C),Ambient temperature (°C),ASC tube jacket temperature (°C),LED temperature (°C),Box temperature (°C),Sample RH (%),Span deviation,Mass concentration (μg/m³),Mass concentration (μg/m³),Mass concentration (μg/m³)
DateTimeUTC,F1_M11,P_M11,Q1_M11,Q2_M11,T1_M11,T2_M11,T3_M11,T4_M11,T5_M11,U1_M11,ZSPAN_M11,X2_M11,X0_M11,X1_M11
2022-11-12 21:00:00,,0825.4,5.00,0.00,24.8,23.6,00.0,33.5,26.7,07.8,0004.3,0008.23,0013.57,0007.62
2022-11-12 21:01:00,,0825.4,5.01,0.00,24.8,23.6,00.0,33.5,26.7,07.8,0003.6,0008.23,0013.50,0007.61
2022-11-12 21:02:00,,0825.4,5.00,0.00,24.8,23.6,00.0,33.5,26.7,07.8,0003.1,0008.21,0013.28,0007.62
2022-11-12 21:03:00,,0825.4,5.00,0.00,24.8,23.6,00.0,33.6,26.7,07.8,0002.0,0008.22,0012.97,0007.63
2022-11-12 21:04:00,,0825.4,5.00,0.00,24.8,23.7,00.0,33.6,26.7,07.8,0002.2,0008.21,0013.05,0007.64
2022-11-12 21:05:00,,0825.4,5.00,0.00,24.8,23.7,00.0,33.6,26.7,07.8,0001.6,0008.23,0013.13,0007.62
2022-11-12 21:06:00,,0825.4,5.00,0.00,24.8,23.7,00.0,33.6,26.8,07.9,0000.8,0008.23,0012.68,0007.63
2022-11-12 21:07:00,,0825.4,4.99,0.00,24.9,23.7,00.0,33.6,26.8,07.9,0001.4,0008.27,0012.84,0007.63
2022-11-12 21:08:00,,0825.4,5.01,0.00,24.9,23.7,00.0,33.6,26.8,07.9,0001.4,0008.29,0012.71,0007.63
2022-11-12 21:09:00,,0825.4,4.99,0.00,24.9,23.7,00.0,33.6,26.8,08.0,0000.9,0008.29,0012.55,0007.63
2022-11-12 21:10:00,,0825.4,5.00,0.00,24.9,23.7,00.0,33.6,26.8,08.1,0000.6,0008.31,0012.68,0007.66
2022-11-12 21:11:00,,0825.3,5.00,0.00,24.9,23.7,00.0,33.6,26.8,08.0,0000.9,0008.33,0012.69,0007.69
2022-11-12 21:12:00,,0825.3,5.00,0.00,24.9,23.7,00.0,33.6,26.8,07.9,0000.4,0008.32,0012.87,0007.69
2022-11-12 21:13:00,,0825.4,5.00,0.00,24.9,23.7,00.0,33.6,26.9,07.9,-000.0,0008.36,0013.01,0007.72
2022-11-12 21:14:00,,0825.3,4.99,0.00,24.9,23.7,00.0,33.6,26.9,08.0,-000.3,0008.41,0013.67,0007.76
2022-11-12 21:15:00,,0825.3,5.00,0.00,24.9,23.8,00.0,33.7,26.8,08.0,-000.9,0008.43,0014.39,0007.79
2022-11-12 21:16:00,,0825.4,5.00,0.00,24.9,23.8,00.0,33.7,26.9,08.0,-000.8,0008.44,0014.47,0007.82
2022-11-12 21:17:00,,0825.4,5.00,0.00,24.9,23.8,00.0,33.7,26.9,07.9,-000.4,0008.48,0014.61,0007.85
2022-11-12 21:18:00,,0825.3,5.00,0.00,24.9,23.8,00.0,33.7,26.9,08.0,-000.3,0008.50,0014.58,0007.87
2022-11-12 21:19:00,,0825.3,5.00,0.00,25.0,23.8,00.0,33.7,26.9,08.0,-000.6,0008.53,0014.58,0007.89
2022-11-12 21:20:00,,0825.3,5.00,0.00,25.0,23.8,00.0,33.7,26.9,08.0,-000.7,0008.55,0014.58,0007.91
2022-11-12 21:21:00,,0825.3,5.00,0.00,25.0,23.8,00.0,33.7,26.9,08.0,-000.8,0008.57,0014.49,0007.91
2022-11-12 21:22:00,,0825.3,5.00,0.00,25.0,23.8,00.0,33.7,26.9,08.0,-000.7,0008.58,0014.71,0007.92
2022-11-12 21:23:00,,0825.3,5.00,0.00,25.0,23.8,00.0,33.7,26.9,07.9,-000.0,0008.59,0015.12,0007.92
2022-11-12 21:24:00,,0825.3,5.00,0.00,25.0,23.8,00.0,33.7,26.9,07.9,-000.1,0008.59,0015.50,0007.92
2022-11-12 21:25:00,,0825.3,5.00,0.00,25.0,23.8,00.0,33.7,26.9,07.9,0000.3,0008.57,0014.68,0007.91
2022-11-12 21:26:00,,0825.3,5.00,0.00,25.0,23.8,00.0,33.7,26.9,07.8,0000.6,0008.59,0013.90,0007.90
2022-11-12 21:27:00,,0825.3,5.00,0.00,25.0,23.8,00.0,33.7,26.9,07.9,0000.9,0008.63,0014.71,0007.90
2022-11-12 21:28:00,,0825.2,5.01,0.00,25.0,23.9,00.0,33.7,27.0,08.0,0001.5,0008.63,0014.68,0007.90
2022-11-12 21:29:00,,0825.3,5.00,0.00,25.0,23.9,00.0,33.7,27.0,08.0,0001.7,0008.61,0014.77,0007.90
2022-11-12 21:30:00,,0825.3,5.00,0.00,25.0,23.9,00.0,33.7,27.0,07.9,0001.3,0008.61,0014.85,0007.89
2022-11-12 21:31:00,,0825.3,5.00,0.00,25.1,23.9,00.0,33.8,27.0,07.9,0001.3,0008.62,0015.06,0007.91
2022-11-12 21:32:00,,0825.3,5.00,0.00,25.1,23.9,00.0,33.8,27.0,07.9,0001.3,0008.60,0015.46,0007.89
2022-11-12 21:33:00,,0825.3,5.00,0.00,25.1,23.9,00.0,33.8,27.0,07.9,0001.3,0008.61,0015.64,0007.89
2022-11-12 21:34:00,,0825.3,5.00,0.00,25.1,23.9,00.0,33.8,27.0,07.9,0000.6,0008.62,0015.39,0007.92
2022-11-12 21:35:00,,0825.3,5.00,0.00,25.1,23.9,00.0,33.8,27.0,07.9,0001.2,0008.65,0015.03,0007.94
2022-11-12 21:36:00,,0825.4,5.00,0.00,25.1,23.9,00.0,33.8,27.0,07.9,0001.6,0008.69,0015.19,0007.95
2022-11-12 21:37:00,,0825.3,4.99,0.00,25.1,23.9,00.0,33.8,27.0,07.9,0001.4,0008.68,0015.08,0007.96
2022-11-12 21:38:00,,0825.3,5.00,0.00,25.1,23.9,00.0,33.8,27.1,08.0,0000.9,0008.64,0014.30,0007.98
2022-11-12 21:39:00,,0825.3,5.00,0.00,25.1,23.9,00.0,33.8,27.1,07.9,0000.3,0008.65,0015.20,0007.99
2022-11-12 21:40:00,,0825.3,4.99,0.00,25.1,23.9,00.0,33.8,27.1,08.0,-000.3,0008.67,0015.19,0008.00
2022-11-12 21:41:00,,0825.3,5.00,0.00,25.1,23.9,00.0,33.8,27.0,08.0,0000.2,0008.67,0015.15,0008.01
2022-11-12 21:42:00,,0825.3,5.00,0.00,25.1,23.9,00.0,33.8,27.0,08.0,-000.1,0008.69,0015.12,0008.01
2022-11-12 21:43:00,,0825.3,5.01,0.00,25.1,23.9,00.0,33.9,27.1,08.0,0000.3,0008.71,0014.71,0008.03
2022-11-12 21:44:00,,0825.3,4.99,0.00,25.1,23.9,00.0,33.9,27.1,08.0,0000.7,0008.69,0014.40,0008.03
2022-11-12 21:45:00,,0825.2,5.01,0.00,25.1,23.9,00.0,33.9,27.1,07.9,0001.6,0008.69,0014.29,0008.03
2022-11-12 21:46:00,,0825.3,5.00,0.00,25.1,23.9,00.0,33.9,27.1,07.9,0001.3,0008.64,0014.22,0008.02
2022-11-12 21:47:00,,0825.3,5.00,0.00,25.1,23.9,00.0,33.9,27.1,07.8,0001.0,0008.58,0014.29,0008.01
2022-11-12 21:48:00,,0825.3,5.01,0.00,25.1,23.9,00.0,33.9,27.1,07.9,0001.2,0008.60,0014.34,0008.02
2022-11-12 21:49:00,,0825.2,5.00,0.00,25.2,23.9,00.0,33.9,27.1,07.9,0001.9,0008.64,0014.31,0008.02
2022-11-12 21:50:00,,0825.3,5.02,0.00,25.2,23.9,00.0,33.9,27.1,07.8,0002.2,0008.63,0013.35,0008.03
2022-11-12 21:51:00,,0825.3,5.00,0.00,25.2,24.0,00.0,33.9,27.1,07.8,0002.4,0008.62,0013.20,0008.03
2022-11-12 21:52:00,,0825.2,5.00,0.00,25.2,24.0,00.0,33.9,27.1,07.8,0002.8,0008.63,0013.77,0008.04
2022-11-12 21:53:00,,0825.2,4.99,0.00,25.2,24.0,00.0,33.9,27.1,07.8,0003.1,0008.65,0013.99,0008.04
2022-11-12 21:54:00,,0825.2,5.00,0.00,25.2,24.0,00.0,33.9,27.1,07.8,0003.1,0008.67,0014.30,0008.05
2022-11-12 21:55:00,,0825.2,5.00,0.00,25.2,24.0,00.0,33.9,27.1,07.8,0002.8,0008.69,0014.25,0008.06
2022-11-12 21:56:00,,0825.2,5.00,0.00,25.2,24.0,00.0,33.9,27.1,07.7,0002.4,0008.71,0014.13,0008.06
2022-11-12 21:57:00,,0825.2,4.99,0.00,25.2,24.0,00.0,33.9,27.1,07.8,0002.8,0008.74,0014.21,0008.07
2022-11-12 21:58:00,,0825.2,4.99,0.00,25.2,24.0,00.0,33.9,27.1,07.8,0002.8,0008.76,0014.52,0008.07
2022-11-12 21:59:00,,0825.2,5.01,0.00,25.2,24.0,00.0,33.9,27.1,07.8,0002.0,0008.75,0015.04,0008.06
